Regional Weather Roundup
Issued by NWS Cleveland, OH

Home | Current Version | Previous Version | Graphics & Text | Print | Product List | Glossary On
Versions: 1 2 3 4 5 6 7 8 9 10 11 12 13 14 15 16 17 18 19 20 21 22 23 24 25 26 27 28 29 30 31 32 33 34 35 36 37 38 39 40 41 42 43 44 45 46 47 48 49 50
225
ASUS41 KCLE 180502
RWRCLE
OHIO REGIONAL WEATHER ROUNDUP
NATIONAL WEATHER SERVICE CLEVELAND, OH
1200 AM EST SAT NOV 18 2017

NOTE: "FAIR" INDICATES FEW OR NO CLOUDS BELOW 12,000 FEET WITH NO
SIGNIFICANT WEATHER AND/OR OBSTRUCTIONS TO VISIBILITY.

OHZ001>008-015>018-024>027-034-035-043-044-180600-
   NORTHWEST OHIO

CITY           SKY/WX    TMP DP  RH WIND       PRES   REMARKS
DEFIANCE       HVY RAIN  42  38  85 S8        29.70R FOG
FINDLAY        LGT RAIN  46  31  55 S18       29.69F
TOLEDO EXPRESS RAIN      44  38  79 SW9       29.73R
TOLEDO EXEC    LGT RAIN  44  35  70 S12       29.72F
LIMA           RAIN      45  36  70 S13G21    29.72R
$$

OHZ009>014-019>023-028>033-038-089-180600-
   NORTHEAST OHIO

CITY           SKY/WX    TMP DP  RH WIND       PRES   REMARKS
CLE-HOPKINS    CLOUDY    45  27  49 S15       29.79F
CLE-LAKEFRONT  MOCLDY    43  28  55 SE16G28   29.75F
CUY CO. ARPT   NOT AVBL
LORAIN-ELYRIA  MOCLDY    42  26  53 S20G26    29.76F
ASHTABULA      CLOUDY    37  29  72 S13       29.83F
AKRON-CANTON   CLOUDY    40  28  62 S14       29.81F
WOOSTER        CLOUDY    42  29  59 S13G21    29.80F
MANSFIELD      CLOUDY    44  28  53 S21G30    29.76F
YOUNGSTOWN     CLOUDY    39  27  62 SE13G23   29.84F
$$

OHZ042-051>053-060>062-070>072-077>081-180600-
  SOUTHWEST OHIO

CITY           SKY/WX    TMP DP  RH WIND       PRES   REMARKS
CINC-COVINGTON CLOUDY    53  37  54 S20G28    29.77F
CINC-LUNKEN    CLOUDY    49  35  58 S8        29.80F
HAMILTON       CLOUDY    50  34  54 S5        29.79F
DAYTON         CLOUDY    50  34  54 S17G26    29.74F
WRIGHT-PAT AFB CLOUDY    48  30  50 S10       29.74F
DAYTON GENERAL CLOUDY    49  32  52 S15G23    29.75F
WILMINGTON     CLOUDY    48  33  56 S15       29.78F
$$

OHZ036-037-039>041-045>050-054>059-063>069-073>076-082>088-180600-
  CENTRAL AND SOUTHEAST OHIO

CITY           SKY/WX    TMP DP  RH WIND       PRES   REMARKS
COLUMBUS       CLOUDY    45  31  58 SE10      29.79F
OSU AIRPORT    MOCLDY    44  32  62 S13       29.78F
BOLTON FIELD   MOCLDY    43  32  66 S10       29.79F
RICKENBACK AFB MOCLDY    45  31  58 S13G18    29.79F
NEWARK         CLOUDY    45  29  53 S9        29.82F
MARION         CLOUDY    44  30  57 S16       29.74F
LANCASTER      CLOUDY    44  31  60 SE13      29.82F
ZANESVILLE     CLOUDY    41  29  62 SE8       29.85F
NEW PHILLY     NOT AVBL
$$




USA.gov is the U.S. government's official web portal to all federal, state and local government web resources and services.